• Em Portugal
  • Lista de países
  • Para 7 dias
  • Temperatura da água
  • Mapas de satélite
  • Mapa do tempo
  • Widgets de tempo
  • user-avatar
    Iniciar Sessão

    Previsão horária em Ankara

    Hoje, 20 Outubro, Sexta-feira

    Tempo Temperatura Precipitação Vento Pressão Humidade
    00:00 +13°C° 0 mm 0 m/s 687 mmHg 42%
    01:00 +13°C° 0 mm 0 m/s 687 mmHg 43%
    02:00 +12°C° 0 mm 0 m/s 687 mmHg 43%
    03:00 +12°C° 0 mm 0 m/s 687 mmHg 44%
    04:00 +11°C° 0 mm 0 m/s 686 mmHg 44%
    05:00 +11°C° 0 mm 0 m/s 686 mmHg 45%
    06:00 +13°C° 0 mm 0 m/s 687 mmHg 41%
    07:00 +14°C° 0 mm 0 m/s 687 mmHg 36%
    08:00 +16°C° 0 mm 0 m/s 688 mmHg 32%
    09:00 +19°C° 0 mm 1 m/s 688 mmHg 29%
    10:00 +20°C° 0 mm 1 m/s 688 mmHg 26%
    11:00 +22°C° 0 mm 1 m/s 688 mmHg 23%
    12:00 +22°C° 0 mm 1 m/s 688 mmHg 22%
    13:00 +23°C° 0 mm 2 m/s 688 mmHg 21%
    14:00 +23°C° 0 mm 2 m/s 688 mmHg 20%
    15:00 +21°C° 0 mm 2 m/s 688 mmHg 23%
    16:00 +21°C° 0 mm 1 m/s 687 mmHg 26%
    17:00 +20°C° 0 mm 1 m/s 687 mmHg 29%
    18:00 +19°C° 0 mm 1 m/s 687 mmHg 32%
    19:00 +18°C° 0 mm 1 m/s 687 mmHg 34%
    20:00 +16°C° 0 mm 1 m/s 687 mmHg 36%
    21:00 +16°C° 0 mm 1 m/s 687 mmHg 38%
    22:00 +15°C° 0 mm 1 m/s 687 mmHg 40%
    23:00 +14°C° 0 mm 1 m/s 687 mmHg 42%

    Amanhã, 21 Outubro, Sábado

    Tempo Temperatura Precipitação Vento Pressão Humidade
    00:00 +14°C° 0 mm 1 m/s 687 mmHg 44%
    01:00 +13°C° 0 mm 1 m/s 687 mmHg 46%
    02:00 +13°C° 0 mm 1 m/s 687 mmHg 48%
    03:00 +13°C° 0 mm 1 m/s 686 mmHg 49%
    04:00 +11°C° 0 mm 0 m/s 686 mmHg 51%
    05:00 +11°C° 0 mm 0 m/s 686 mmHg 53%
    06:00 +12°C° 0 mm 0 m/s 686 mmHg 48%
    07:00 +14°C° 0 mm 0 m/s 687 mmHg 44%
    08:00 +15°C° 0 mm 0 m/s 687 mmHg 40%
    09:00 +18°C° 0 mm 1 m/s 687 mmHg 36%
    10:00 +20°C° 0 mm 1 m/s 687 mmHg 32%
    11:00 +21°C° 0 mm 1 m/s 688 mmHg 28%
    12:00 +21°C° 0 mm 2 m/s 687 mmHg 26%
    13:00 +21°C° 0 mm 2 m/s 687 mmHg 25%
    14:00 +22°C° 0 mm 3 m/s 687 mmHg 24%
    15:00 +21°C° 0 mm 3 m/s 686 mmHg 27%
    16:00 +20°C° 0 mm 2 m/s 686 mmHg 30%
    17:00 +18°C° 0 mm 2 m/s 685 mmHg 33%
    18:00 +18°C° 0 mm 2 m/s 685 mmHg 35%
    19:00 +17°C° 0 mm 2 m/s 685 mmHg 37%
    20:00 +16°C° 0 mm 1 m/s 685 mmHg 40%
    21:00 +15°C° 0 mm 1 m/s 685 mmHg 41%
    22:00 +15°C° 0 mm 1 m/s 685 mmHg 43%
    23:00 +14°C° 0 mm 1 m/s 685 mmHg 45%

    Depois de amanhã, 22 Outubro, Domingo

    Tempo Temperatura Precipitação Vento Pressão Humidade
    00:00 +13°C° 0 mm 1 m/s 685 mmHg 46%
    01:00 +13°C° 0 mm 1 m/s 685 mmHg 47%
    02:00 +12°C° 0 mm 1 m/s 684 mmHg 48%
    03:00 +12°C° 0 mm 1 m/s 684 mmHg 49%
    04:00 +12°C° 0 mm 1 m/s 684 mmHg 50%
    05:00 +11°C° 0 mm 1 m/s 684 mmHg 51%
    06:00 +12°C° 0 mm 1 m/s 684 mmHg 47%
    07:00 +14°C° 0 mm 1 m/s 685 mmHg 44%
    08:00 +15°C° 0 mm 1 m/s 685 mmHg 40%
    09:00 +16°C° 0 mm 1 m/s 685 mmHg 35%
    10:00 +19°C° 0 mm 1 m/s 686 mmHg 31%
    11:00 +19°C° 0 mm 2 m/s 686 mmHg 26%
    12:00 +19°C° 0 mm 2 m/s 685 mmHg 24%
    13:00 +20°C° 0 mm 2 m/s 685 mmHg 22%
    14:00 +21°C° 0 mm 2 m/s 685 mmHg 20%
    15:00 +19°C° 0 mm 2 m/s 685 mmHg 22%
    16:00 +18°C° 0 mm 2 m/s 684 mmHg 25%
    17:00 +18°C° 0 mm 1 m/s 684 mmHg 27%
    18:00 +16°C° 0 mm 1 m/s 684 mmHg 30%
    19:00 +16°C° 0 mm 1 m/s 684 mmHg 33%
    20:00 +15°C° 0 mm 1 m/s 684 mmHg 36%
    21:00 +14°C° 0 mm 1 m/s 684 mmHg 38%
    22:00 +14°C° 0 mm 1 m/s 684 mmHg 40%
    23:00 +13°C° 0 mm 1 m/s 684 mmHg 42%

    23 Outubro, Segunda-feira

    Tempo Temperatura Precipitação Vento Pressão Humidade
    00:00 +13°C° 0 mm 1 m/s 684 mmHg 43%
    01:00 +13°C° 0 mm 1 m/s 684 mmHg 43%
    02:00 +12°C° 0 mm 1 m/s 683 mmHg 44%
    03:00 +12°C° 0 mm 1 m/s 683 mmHg 45%
    04:00 +11°C° 0 mm 1 m/s 683 mmHg 46%
    05:00 +11°C° 0 mm 1 m/s 683 mmHg 47%
    06:00 +12°C° 0 mm 1 m/s 683 mmHg 45%
    07:00 +13°C° 0 mm 1 m/s 683 mmHg 43%
    08:00 +14°C° 0 mm 1 m/s 683 mmHg 41%
    09:00 +16°C° 0 mm 2 m/s 683 mmHg 37%
    10:00 +17°C° 0 mm 2 m/s 683 mmHg 32%
    11:00 +19°C° 0 mm 2 m/s 683 mmHg 28%
    12:00 +19°C° 0 mm 2 m/s 683 mmHg 26%
    13:00 +20°C° 0 mm 2 m/s 682 mmHg 25%
    14:00 +21°C° 0 mm 2 m/s 682 mmHg 23%
    15:00 +20°C° 0 mm 2 m/s 681 mmHg 25%
    16:00 +19°C° 0 mm 2 m/s 681 mmHg 28%
    17:00 +19°C° 0 mm 1 m/s 681 mmHg 30%
    18:00 +18°C° 0 mm 1 m/s 681 mmHg 31%
    19:00 +17°C° 0 mm 2 m/s 681 mmHg 33%
    20:00 +16°C° 0 mm 2 m/s 681 mmHg 34%
    21:00 +16°C° 0 mm 2 m/s 681 mmHg 35%
    22:00 +15°C° 0 mm 2 m/s 680 mmHg 35%
    23:00 +15°C° 0 mm 2 m/s 680 mmHg 36%

    24 Outubro, Terça-feira

    Tempo Temperatura Precipitação Vento Pressão Humidade
    00:00 +15°C° 0 mm 2 m/s 680 mmHg 37%
    01:00 +14°C° 0 mm 2 m/s 680 mmHg 38%
    02:00 +14°C° 0 mm 2 m/s 680 mmHg 39%
    03:00 +14°C° 0 mm 2 m/s 680 mmHg 42%
    04:00 +13°C° 0 mm 2 m/s 680 mmHg 45%
    05:00 +13°C° 0 mm 2 m/s 680 mmHg 47%
    06:00 +14°C° 0 mm 2 m/s 680 mmHg 48%
    07:00 +14°C° 0 mm 2 m/s 681 mmHg 48%
    08:00 +15°C° 0 mm 2 m/s 681 mmHg 49%
    09:00 +16°C° 0 mm 3 m/s 681 mmHg 45%
    10:00 +18°C° 0 mm 4 m/s 681 mmHg 41%
    11:00 +19°C° 0 mm 5 m/s 681 mmHg 37%
    12:00 +20°C° 0 mm 5 m/s 681 mmHg 35%
    13:00 +21°C° 0 mm 6 m/s 681 mmHg 33%
    14:00 +21°C° 0 mm 6 m/s 680 mmHg 31%
    15:00 +20°C° 0 mm 5 m/s 680 mmHg 34%
    16:00 +19°C° 0 mm 4 m/s 680 mmHg 37%
    17:00 +19°C° 0 mm 3 m/s 680 mmHg 40%
    18:00 +18°C° 0 mm 3 m/s 680 mmHg 43%
    19:00 +17°C° 0 mm 3 m/s 680 mmHg 47%
    20:00 +16°C° 0 mm 3 m/s 680 mmHg 51%
    21:00 +16°C° 0 mm 3 m/s 680 mmHg 53%
    22:00 +16°C° 0 mm 3 m/s 681 mmHg 55%
    23:00 +14°C° 0 mm 3 m/s 681 mmHg 58%

    25 Outubro, Quarta-feira

    Tempo Temperatura Precipitação Vento Pressão Humidade
    00:00 +14°C° 0 mm 3 m/s 681 mmHg 60%
    01:00 +13°C° 0 mm 3 m/s 681 mmHg 62%
    02:00 +13°C° 0 mm 3 m/s 681 mmHg 64%
    03:00 +13°C° 0,2 mm 2 m/s 681 mmHg 64%
    04:00 +13°C° 0,2 mm 2 m/s 681 mmHg 64%
    05:00 +13°C° 0,2 mm 2 m/s 681 mmHg 64%
    06:00 +14°C° 0,4 mm 2 m/s 682 mmHg 62%
    07:00 +14°C° 0,4 mm 2 m/s 682 mmHg 60%
    08:00 +15°C° 0,4 mm 2 m/s 683 mmHg 57%
    09:00 +15°C° 1 mm 2 m/s 683 mmHg 60%
    10:00 +15°C° 1 mm 2 m/s 683 mmHg 62%
    11:00 +14°C° 1 mm 2 m/s 683 mmHg 64%
    12:00 +15°C° 0,6 mm 2 m/s 683 mmHg 65%
    13:00 +15°C° 0,6 mm 2 m/s 683 mmHg 66%
    14:00 +15°C° 0,6 mm 2 m/s 682 mmHg 67%
    15:00 +14°C° 1,5 mm 2 m/s 683 mmHg 72%
    16:00 +14°C° 1,5 mm 2 m/s 683 mmHg 76%
    17:00 +13°C° 1,5 mm 2 m/s 683 mmHg 81%
    18:00 +13°C° 0,2 mm 2 m/s 683 mmHg 81%
    19:00 +13°C° 0,2 mm 2 m/s 683 mmHg 81%
    20:00 +13°C° 0,2 mm 2 m/s 684 mmHg 81%
    21:00 +13°C° 0,1 mm 2 m/s 684 mmHg 80%
    22:00 +13°C° 0,1 mm 2 m/s 684 mmHg 80%
    23:00 +13°C° 0,1 mm 2 m/s 684 mmHg 79%
    Mostrar mais